JBU1 KJFK-KFLL

Flight info

Callsign JBU1
Flight time N/A
Altitude 34000
Route WAVEY EMJAY Q167 ZJAAY KALDA Q161 CHIEZ Y291 MAJIK CUUDA3
Aircraft A321/M-SDE3FGHIRWY/LB1

Departure

Time 2026-05-06 16:59
Airport John F. Kennedy International Airport (KJFK)

Arrival

Time N/A
Airport Fort Lauderdale Hollywood International Airport (KFLL)
Time Latitude Longitude Altitude Speed Heading
2026-05-06 16:43 40.64709 -73.77606 21 ft 0 kts 206°
2026-05-06 16:51 40.64710 -73.77606 21 ft 1 kts 206°
2026-05-06 16:51 40.64731 -73.77592 23 ft 4 kts 206°
2026-05-06 16:51 40.64751 -73.77579 22 ft 4 kts 215°
2026-05-06 16:51 40.64759 -73.77559 25 ft 4 kts 289°
2026-05-06 16:52 40.64748 -73.77530 24 ft 4 kts 301°
2026-05-06 16:52 40.64734 -73.77499 24 ft 4 kts 301°
2026-05-06 16:52 40.64723 -73.77475 23 ft 4 kts 301°
2026-05-06 16:52 40.64719 -73.77466 24 ft 2 kts 301°
2026-05-06 16:55 40.64719 -73.77467 21 ft 0 kts 301°
2026-05-06 16:55 40.64728 -73.77486 23 ft 5 kts 301°
2026-05-06 16:55 40.64756 -73.77529 21 ft 8 kts 330°
2026-05-06 16:55 40.64810 -73.77578 21 ft 11 kts 316°
2026-05-06 16:56 40.64894 -73.77556 21 ft 15 kts 37°
2026-05-06 16:56 40.64928 -73.77436 21 ft 16 kts 112°
2026-05-06 16:56 40.64866 -73.77296 22 ft 19 kts 121°
2026-05-06 16:56 40.64795 -73.77142 22 ft 21 kts 121°
2026-05-06 16:57 40.64720 -73.76978 22 ft 22 kts 121°
2026-05-06 16:57 40.64742 -73.76803 24 ft 23 kts 31°
2026-05-06 16:57 40.64887 -73.76688 22 ft 26 kts 31°
2026-05-06 16:57 40.65047 -73.76565 21 ft 28 kts 30°
2026-05-06 16:58 40.65047 -73.76370 21 ft 25 kts 144°
2026-05-06 16:58 40.64903 -73.76449 21 ft 26 kts 211°
2026-05-06 16:58 40.64591 -73.76693 22 ft 80 kts 211°
2026-05-06 16:58 40.63972 -73.77176 25 ft 126 kts 211°
2026-05-06 16:59 40.63111 -73.77847 108 ft 155 kts 209°
2026-05-06 16:59 40.62188 -73.78609 560 ft 159 kts 211°
2026-05-06 16:59 40.61222 -73.79363 1047 ft 164 kts 208°
2026-05-06 16:59 40.60213 -73.80090 1599 ft 167 kts 211°
2026-05-06 17:00 40.59217 -73.80901 2019 ft 173 kts 216°
2026-05-06 17:00 40.58164 -73.81773 2391 ft 189 kts 215°
2026-05-06 17:00 40.57001 -73.82710 2740 ft 202 kts 215°
2026-05-06 17:00 40.55739 -73.83720 3052 ft 223 kts 215°
2026-05-06 17:01 40.54214 -73.84488 3485 ft 251 kts 191°
2026-05-06 17:01 40.52432 -73.84175 4159 ft 270 kts 162°
2026-05-06 17:01 40.50900 -73.82662 5006 ft 283 kts 137°
2026-05-06 17:01 40.49660 -73.80646 5902 ft 284 kts 134°
2026-05-06 17:02 40.48442 -73.78603 6653 ft 284 kts 135°
2026-05-06 17:02 40.47203 -73.76571 7270 ft 286 kts 136°
2026-05-06 17:02 40.45936 -73.74537 7863 ft 289 kts 137°
2026-05-06 17:02 40.44642 -73.72486 8437 ft 293 kts 137°
2026-05-06 17:03 40.43324 -73.70414 9007 ft 298 kts 138°
2026-05-06 17:03 40.41981 -73.68306 9572 ft 303 kts 139°
2026-05-06 17:03 40.40613 -73.66168 10073 ft 310 kts 138°
2026-05-06 17:03 40.39191 -73.63955 10348 ft 325 kts 138°
2026-05-06 17:04 40.37699 -73.61631 10592 ft 341 kts 137°
2026-05-06 17:04 40.36134 -73.59188 10815 ft 358 kts 137°
2026-05-06 17:04 40.34519 -73.56667 11016 ft 373 kts 136°
2026-05-06 17:04 40.32818 -73.54018 11250 ft 385 kts 136°
2026-05-06 17:05 40.31073 -73.51311 11686 ft 391 kts 136°
2026-05-06 17:05 40.29311 -73.48574 12207 ft 394 kts 136°
2026-05-06 17:05 40.27534 -73.45809 12728 ft 398 kts 135°
2026-05-06 17:05 40.25742 -73.43029 13238 ft 401 kts 135°
2026-05-06 17:06 40.23916 -73.40238 13756 ft 404 kts 138°
2026-05-06 17:06 40.21806 -73.37851 14220 ft 399 kts 149°
2026-05-06 17:06 40.19540 -73.35731 14705 ft 401 kts 150°
2026-05-06 17:06 40.17260 -73.33624 15189 ft 403 kts 150°
2026-05-06 17:07 40.14938 -73.31532 15651 ft 404 kts 154°
2026-05-06 17:07 40.12409 -73.30037 16094 ft 396 kts 169°
2026-05-06 17:07 40.09717 -73.29531 16519 ft 389 kts 185°
2026-05-06 17:07 40.07059 -73.30025 16926 ft 383 kts 200°
2026-05-06 17:08 40.04649 -73.31422 17320 ft 379 kts 216°
2026-05-06 17:08 40.02597 -73.33503 17725 ft 379 kts 224°
2026-05-06 17:08 40.00590 -73.35823 18145 ft 382 kts 224°
2026-05-06 17:08 39.98611 -73.38099 18507 ft 385 kts 224°
2026-05-06 17:09 39.96582 -73.40399 18890 ft 387 kts 223°
2026-05-06 17:09 39.94532 -73.42700 19290 ft 389 kts 223°
2026-05-06 17:09 39.92477 -73.45008 19677 ft 391 kts 223°
2026-05-06 17:09 39.90410 -73.47316 20061 ft 393 kts 223°
2026-05-06 17:10 39.88332 -73.49637 20405 ft 395 kts 223°
2026-05-06 17:10 39.86237 -73.51973 20751 ft 398 kts 223°
2026-05-06 17:10 39.84135 -73.54316 21102 ft 399 kts 223°
2026-05-06 17:10 39.82017 -73.56669 21438 ft 401 kts 223°
2026-05-06 17:11 39.79884 -73.59039 21754 ft 403 kts 223°
2026-05-06 17:11 39.77747 -73.61414 22073 ft 405 kts 223°
2026-05-06 17:11 39.75601 -73.63799 22391 ft 407 kts 223°
2026-05-06 17:11 39.73446 -73.66192 22706 ft 409 kts 223°
2026-05-06 17:12 39.71279 -73.68596 23008 ft 411 kts 223°
2026-05-06 17:12 39.69097 -73.71015 23308 ft 412 kts 222°
2026-05-06 17:12 39.66911 -73.73437 23580 ft 414 kts 222°
2026-05-06 17:12 39.64715 -73.75869 23819 ft 416 kts 223°
2026-05-06 17:13 39.62509 -73.78308 24061 ft 418 kts 223°
2026-05-06 17:13 39.60290 -73.80756 24309 ft 419 kts 223°
2026-05-06 17:13 39.58063 -73.83213 24548 ft 421 kts 223°
2026-05-06 17:13 39.55830 -73.85675 24780 ft 422 kts 223°
2026-05-06 17:14 39.53587 -73.88151 25011 ft 424 kts 223°
2026-05-06 17:14 39.51340 -73.90626 25247 ft 425 kts 223°
2026-05-06 17:14 39.49080 -73.93111 25463 ft 426 kts 223°
2026-05-06 17:14 39.46813 -73.95605 25678 ft 428 kts 223°
2026-05-06 17:15 39.44548 -73.98094 25887 ft 430 kts 223°
2026-05-06 17:15 39.42263 -74.00601 26120 ft 431 kts 223°
2026-05-06 17:15 39.40005 -74.03074 26324 ft 432 kts 223°
2026-05-06 17:15 39.37700 -74.05594 26532 ft 434 kts 223°
2026-05-06 17:16 39.35390 -74.08119 26730 ft 435 kts 223°
2026-05-06 17:16 39.33074 -74.10647 26931 ft 437 kts 223°
2026-05-06 17:16 39.30748 -74.13183 27131 ft 438 kts 223°
2026-05-06 17:16 39.28418 -74.15723 27334 ft 440 kts 223°
2026-05-06 17:17 39.26077 -74.18273 27523 ft 441 kts 224°
2026-05-06 17:17 39.23726 -74.20832 27746 ft 441 kts 224°
2026-05-06 17:17 39.21380 -74.23384 27989 ft 441 kts 224°
2026-05-06 17:17 39.19037 -74.25928 28245 ft 440 kts 224°
2026-05-06 17:18 39.16692 -74.28472 28498 ft 440 kts 224°
2026-05-06 17:18 39.14351 -74.31009 28744 ft 439 kts 224°
2026-05-06 17:18 39.12014 -74.33541 28985 ft 439 kts 224°
2026-05-06 17:18 39.09676 -74.36071 29237 ft 438 kts 224°
2026-05-06 17:19 39.07343 -74.38594 29457 ft 438 kts 224°
2026-05-06 17:19 39.05036 -74.41087 29696 ft 438 kts 224°
2026-05-06 17:19 39.02706 -74.43600 29907 ft 438 kts 224°
2026-05-06 17:19 39.00369 -74.46117 30109 ft 437 kts 224°
2026-05-06 17:20 38.98038 -74.48626 30304 ft 437 kts 224°
2026-05-06 17:20 38.95708 -74.51134 30497 ft 436 kts 224°
2026-05-06 17:20 38.93410 -74.53670 30681 ft 435 kts 226°
2026-05-06 17:20 38.91172 -74.56283 30852 ft 434 kts 227°
2026-05-06 17:21 38.88942 -74.58900 31023 ft 434 kts 227°
2026-05-06 17:21 38.86714 -74.61514 31206 ft 434 kts 227°
2026-05-06 17:21 38.84484 -74.64126 31378 ft 434 kts 227°
2026-05-06 17:21 38.82249 -74.66738 31554 ft 433 kts 227°
2026-05-06 17:22 38.80025 -74.69333 31728 ft 433 kts 227°
2026-05-06 17:22 38.77794 -74.71932 31894 ft 433 kts 227°
2026-05-06 17:22 38.75567 -74.74523 32063 ft 433 kts 226°
2026-05-06 17:22 38.73285 -74.76984 32224 ft 434 kts 224°
2026-05-06 17:23 38.70946 -74.79426 32379 ft 434 kts 224°
2026-05-06 17:23 38.68600 -74.81867 32555 ft 434 kts 224°
2026-05-06 17:23 38.66258 -74.84304 32730 ft 434 kts 224°
2026-05-06 17:23 38.63917 -74.86740 32895 ft 433 kts 224°
2026-05-06 17:24 38.61578 -74.89172 33071 ft 432 kts 224°
2026-05-06 17:24 38.59246 -74.91594 33248 ft 432 kts 224°
2026-05-06 17:24 38.56913 -74.94017 33419 ft 431 kts 224°
2026-05-06 17:24 38.54585 -74.96431 33586 ft 431 kts 225°
2026-05-06 17:25 38.52278 -74.98873 33755 ft 428 kts 226°
2026-05-06 17:25 38.50037 -75.01371 33921 ft 427 kts 227°
2026-05-06 17:25 38.47797 -75.03875 34003 ft 428 kts 227°
2026-05-06 17:26 38.43077 -75.08568 33986 ft 431 kts 223°
2026-05-06 17:26 38.38253 -75.13134 33977 ft 431 kts 223°
2026-05-06 17:27 38.33444 -75.17694 33974 ft 430 kts 223°
2026-05-06 17:27 38.28674 -75.22214 33980 ft 430 kts 223°
2026-05-06 17:28 38.23871 -75.26757 33968 ft 429 kts 223°
2026-05-06 17:28 38.19079 -75.31282 33972 ft 429 kts 223°
2026-05-06 17:29 38.14278 -75.35814 33979 ft 429 kts 223°
2026-05-06 17:29 38.09485 -75.40326 33983 ft 429 kts 223°
2026-05-06 17:30 38.04668 -75.44812 33981 ft 430 kts 221°
2026-05-06 17:30 37.99730 -75.49131 33987 ft 431 kts 221°
2026-05-06 17:31 37.94795 -75.53429 33986 ft 430 kts 221°
2026-05-06 17:31 37.89861 -75.57723 33982 ft 430 kts 221°
2026-05-06 17:32 37.84864 -75.61921 33971 ft 435 kts 215°
2026-05-06 17:32 37.79077 -75.64565 33978 ft 448 kts 202°
2026-05-06 17:32 37.76063 -75.65582 33727 ft 444 kts 206°
2026-05-06 17:33 37.73098 -75.66584 33852 ft 438 kts 206°
2026-05-06 17:33 37.68231 -75.68276 33940 ft 435 kts 206°
2026-05-06 17:34 37.62400 -75.70324 33959 ft 435 kts 206°
2026-05-06 17:34 37.55622 -75.72700 33964 ft 434 kts 206°
2026-05-06 17:35 37.50747 -75.74406 33966 ft 434 kts 205°
2026-05-06 17:35 37.44923 -75.76443 33968 ft 435 kts 205°
2026-05-06 17:36 37.36150 -75.79501 33971 ft 437 kts 205°
2026-05-06 17:36 37.30281 -75.81544 33969 ft 438 kts 204°
2026-05-06 17:37 37.24397 -75.83590 33974 ft 439 kts 204°
2026-05-06 17:37 37.18540 -75.85620 33970 ft 440 kts 204°
2026-05-06 17:38 37.12632 -75.87665 33981 ft 441 kts 204°
2026-05-06 17:38 37.06948 -75.90251 33984 ft 427 kts 216°
2026-05-06 17:39 37.01769 -75.93861 33989 ft 426 kts 217°
2026-05-06 17:39 36.96593 -75.97497 33993 ft 427 kts 217°
2026-05-06 17:40 36.91400 -76.01102 33987 ft 427 kts 217°
2026-05-06 17:40 36.86192 -76.04708 33994 ft 428 kts 217°
2026-05-06 17:41 36.80979 -76.08313 33996 ft 429 kts 217°
2026-05-06 17:41 36.75787 -76.11896 34007 ft 429 kts 217°
2026-05-06 17:42 36.70559 -76.15499 34009 ft 429 kts 217°
2026-05-06 17:42 36.65324 -76.19100 34007 ft 430 kts 217°
2026-05-06 17:43 36.60087 -76.22697 34016 ft 430 kts 217°
2026-05-06 17:43 36.54849 -76.26289 34017 ft 430 kts 217°
2026-05-06 17:44 36.49598 -76.29884 34018 ft 430 kts 217°
2026-05-06 17:44 36.44352 -76.33470 34015 ft 431 kts 217°
2026-05-06 17:45 36.39095 -76.37061 34020 ft 431 kts 217°
2026-05-06 17:45 36.33837 -76.40643 34021 ft 431 kts 217°
2026-05-06 17:46 36.28575 -76.44224 34017 ft 431 kts 217°
2026-05-06 17:46 36.23344 -76.47780 34026 ft 431 kts 217°
2026-05-06 17:47 36.18084 -76.51348 34031 ft 431 kts 217°
2026-05-06 17:47 36.12825 -76.54910 34038 ft 431 kts 217°
2026-05-06 17:48 36.07564 -76.58467 34041 ft 431 kts 217°
2026-05-06 17:48 36.02303 -76.62021 34034 ft 431 kts 217°
2026-05-06 17:49 35.97037 -76.65574 34036 ft 431 kts 216°
2026-05-06 17:49 35.91764 -76.69120 34032 ft 432 kts 216°
2026-05-06 17:50 35.86389 -76.72487 34026 ft 434 kts 214°
2026-05-06 17:50 35.80966 -76.75792 34027 ft 435 kts 214°
2026-05-06 17:51 35.75537 -76.79105 34028 ft 436 kts 214°
2026-05-06 17:51 35.70101 -76.82418 34031 ft 436 kts 214°
2026-05-06 17:52 35.64657 -76.85728 34043 ft 437 kts 214°
2026-05-06 17:52 35.59197 -76.89045 34047 ft 438 kts 214°
2026-05-06 17:53 35.53742 -76.92377 34051 ft 438 kts 214°
2026-05-06 17:53 35.48312 -76.95714 34052 ft 439 kts 214°
2026-05-06 17:54 35.42841 -76.99064 34042 ft 440 kts 215°
2026-05-06 17:54 35.37356 -77.02416 34043 ft 441 kts 215°
2026-05-06 17:55 35.31849 -77.05774 34041 ft 442 kts 215°
2026-05-06 17:55 35.26327 -77.09141 34058 ft 443 kts 215°
2026-05-06 17:56 35.20811 -77.12499 34062 ft 443 kts 215°
2026-05-06 17:56 35.15291 -77.15854 34063 ft 442 kts 215°
2026-05-06 17:57 35.09776 -77.19201 34065 ft 442 kts 215°
2026-05-06 17:57 35.04299 -77.22517 34064 ft 441 kts 215°
2026-05-06 17:58 34.98790 -77.25848 34060 ft 441 kts 215°
2026-05-06 17:58 34.93290 -77.29173 34058 ft 442 kts 215°
2026-05-06 17:59 34.87811 -77.32478 34062 ft 442 kts 215°
2026-05-06 17:59 34.82294 -77.35799 34063 ft 443 kts 215°
2026-05-06 18:00 34.76765 -77.39125 34065 ft 444 kts 215°
2026-05-06 18:00 34.71231 -77.42450 34069 ft 444 kts 214°
2026-05-06 18:01 34.65686 -77.45773 34067 ft 444 kts 214°
2026-05-06 18:01 34.60134 -77.49096 34060 ft 444 kts 214°
2026-05-06 18:02 34.54586 -77.52412 34063 ft 445 kts 214°
2026-05-06 18:02 34.48624 -77.54854 34063 ft 463 kts 199°